Sigfox identifier Datetime Temperature Humidity SNR
002F072B 2019-04-23 15:04:16 15.8 33 21.7
002F072B 2019-04-23 14:30:59 15.7 33 21.8
002F072B 2019-04-23 13:57:49 15.7 33 22
002F072B 2019-04-23 13:24:31 15.7 33 21.9
002F072B 2019-04-23 12:51:16 15.5 32 21.8
002F072B 2019-04-23 12:18:01 15.5 32 22
002F072B 2019-04-23 11:44:49 15.5 32 21.8
002F072B 2019-04-23 11:11:33 15.5 32 21.9
002F072B 2019-04-23 10:38:18 15.5 32 22
002F072B 2019-04-23 10:05:03 15.5 32 22.4
002F072B 2019-04-23 09:31:48 15.5 32 22.2
002F072B 2019-04-23 08:58:33 15.5 32 22.1
002F072B 2019-04-23 08:25:18 15.5 32 21.7
002F072B 2019-04-23 07:52:03 15.5 32 21.8
002F072B 2019-04-23 07:18:49 15.5 32 21.8
002F072B 2019-04-23 06:45:33 15.5 32 21.8
002F072B 2019-04-23 06:12:18 15.5 32 21.8
002F072B 2019-04-23 05:39:03 15.5 32 21.8
002F072B 2019-04-23 05:05:47 15.5 32 21.7
002F072B 2019-04-23 04:32:33 15.5 32 21.7
002F072B 2019-04-23 03:59:17 15.5 32 21.7
002F072B 2019-04-23 03:26:03 15.5 32 21.8
002F072B 2019-04-23 02:52:50 15.5 32 21.8
002F072B 2019-04-23 02:19:36 15.5 32 21.8
002F072B 2019-04-23 01:46:23 15.5 32 22
002F072B 2019-04-23 01:13:09 15.6 32 22.1
002F072B 2019-04-23 00:39:56 15.6 32 22
002F072B 2019-04-23 00:06:42 15.6 32 22.1
002F072B 2019-04-22 23:33:29 15.6 32 22
002F072B 2019-04-22 23:00:15 15.6 32 22
002F072B 2019-04-22 22:27:02 15.7 32 22
002F072B 2019-04-22 21:53:49 15.7 32 22
002F072B 2019-04-22 21:20:35 15.7 32 21.9
002F072B 2019-04-22 20:47:22 15.7 32 21.8
002F072B 2019-04-22 20:14:09 15.7 32 21.8
002F072B 2019-04-22 19:40:56 15.7 32 21.7
002F072B 2019-04-22 19:07:43 15.7 32 21.8
002F072B 2019-04-22 18:34:30 15.7 32 21.8
002F072B 2019-04-22 18:01:16 15.7 32 21.9
002F072B 2019-04-22 17:28:02 15.7 32 21.8
002F072B 2019-04-22 16:54:47 15.6 32 21.8
002F072B 2019-04-22 16:21:33 15.6 32 21.7
002F072B 2019-04-22 15:48:18 15.5 32 21.7
002F072B 2019-04-22 15:15:03 15.5 32 21.8
002F072B 2019-04-22 14:41:47 15.5 32 21.8
002F072B 2019-04-22 14:08:32 15.5 32 21.8
002F072B 2019-04-22 13:35:17 15.5 32 21.8
002F072B 2019-04-22 13:02:02 15.5 32 21.7
002F072B 2019-04-22 12:28:48 15.5 32 21.6
002F072B 2019-04-22 11:55:33 15.5 32 21.5
002F072B 2019-04-22 11:22:19 15.5 32 21.3
002F072B 2019-04-22 10:49:04 15.5 32 21.3
002F072B 2019-04-22 10:15:50 15.5 31 21.3
002F072B 2019-04-22 09:42:34 15.5 31 21.4
002F072B 2019-04-22 09:09:19 15.5 31 21.3
002F072B 2019-04-22 08:36:03 15.5 31 21.4
002F072B 2019-04-22 08:02:48 15.5 31 21.4
002F072B 2019-04-22 07:29:33 15.5 31 21.4
002F072B 2019-04-22 06:56:19 15.5 31 21.5
002F072B 2019-04-22 06:23:04 15.5 31 21.5
002F072B 2019-04-22 05:49:49 15.5 31 21.6
002F072B 2019-04-22 05:16:35 15.4 31 21.6
002F072B 2019-04-22 04:43:20 15.4 31 21.7
002F072B 2019-04-22 04:10:06 15.4 31 21.6
002F072B 2019-04-22 03:36:52 15.3 31 21.7
002F072B 2019-04-22 03:03:38 15.4 31 21.6
002F072B 2019-04-22 02:30:25 15.3 31 21.7
002F072B 2019-04-22 01:57:11 15.3 31 21.8
002F072B 2019-04-22 01:23:57 15.3 31 21.7
002F072B 2019-04-22 00:50:43 15.3 31 21.7
002F072B 2019-04-22 00:17:28 15.3 31 21.7
002F072B 2019-04-21 23:44:12 15.3 31 21.6
002F072B 2019-04-21 23:10:56 15.3 31 21.7
002F072B 2019-04-21 22:37:41 15.3 31 21.8
002F072B 2019-04-21 22:04:26 15.3 31 22
002F072B 2019-04-21 21:31:11 15.3 31 22
002F072B 2019-04-21 20:57:56 15.3 31 22
002F072B 2019-04-21 20:24:41 15.3 31 21.9
002F072B 2019-04-21 19:51:24 15.3 31 21.8
002F072B 2019-04-21 19:18:08 15.3 31 21.7
002F072B 2019-04-21 18:44:53 15.3 31 21.6
002F072B 2019-04-21 18:11:37 15.3 31 21.6
002F072B 2019-04-21 17:38:22 15.3 31 21.6
002F072B 2019-04-21 17:05:07 15.3 31 21.5
002F072B 2019-04-21 16:31:52 15.3 31 21.5
002F072B 2019-04-21 15:58:38 15.3 31 21.5
002F072B 2019-04-21 15:25:23 15.3 31 21.3
002F072B 2019-04-21 14:52:08 15.3 31 21.3
002F072B 2019-04-21 14:18:52 15.3 31 21.3
002F072B 2019-04-21 13:45:37 15.3 31 21.2
002F072B 2019-04-21 13:12:22 15.3 31 21.3
002F072B 2019-04-21 12:39:07 15.3 31 21.3
002F072B 2019-04-21 12:05:53 15.3 31 21.2
002F072B 2019-04-21 11:32:38 15.5 30 21.2
002F072B 2019-04-21 10:59:23 15.5 30 21.1
002F072B 2019-04-21 10:26:08 15.5 30 21.1
002F072B 2019-04-21 09:52:54 15.5 30 21.1
002F072B 2019-04-21 09:19:40 15.5 30 21
002F072B 2019-04-21 08:46:25 15.5 30 21
002F072B 2019-04-21 08:13:12 15.5 30 21
002F072B 2019-04-21 07:39:58 15.5 30 21
002F072B 2019-04-21 07:06:44 15.5 30 21
002F072B 2019-04-21 06:33:31 15.5 30 21
002F072B 2019-04-21 06:00:16 15.5 30 21.1
002F072B 2019-04-21 05:27:02 15.5 30 21.3
002F072B 2019-04-21 04:53:49 15.5 30 21.4
002F072B 2019-04-21 04:20:35 15.5 30 21.4
002F072B 2019-04-21 03:47:21 15.5 30 21.4
002F072B 2019-04-21 03:14:07 15.5 30 21.4
002F072B 2019-04-21 02:40:52 15.4 30 21.4
002F072B 2019-04-21 02:07:37 15.5 30 21.4
002F072B 2019-04-21 01:34:22 15.4 30 21.5
002F072B 2019-04-21 01:01:07 15.4 30 21.6
002F072B 2019-04-21 00:27:54 15.5 30 21.6
002F072B 2019-04-20 23:54:37 15.4 30 21.6
002F072B 2019-04-20 23:21:22 15.5 30 21.7
002F072B 2019-04-20 22:48:06 15.5 30 21.7
002F072B 2019-04-20 22:14:51 15.5 30 21.8
002F072B 2019-04-20 21:41:37 15.4 30 21.9
002F072B 2019-04-20 21:08:23 15.5 30 21.9
002F072B 2019-04-20 20:35:10 15.5 30 22
002F072B 2019-04-20 20:01:55 15.5 30 22
002F072B 2019-04-20 19:28:40 15.5 30 22
002F072B 2019-04-20 18:55:25 15.5 30 22
002F072B 2019-04-20 18:22:10 15.5 30 21.7
002F072B 2019-04-20 17:48:55 15.5 30 21.8
002F072B 2019-04-20 17:15:40 15.5 30 21.7
002F072B 2019-04-20 16:42:24 15.5 30 21.7
002F072B 2019-04-20 16:09:10 15.5 30 21.6
002F072B 2019-04-20 15:35:56 15.5 30 21.6
002F072B 2019-04-20 15:02:41 15.5 30 21.6
002F072B 2019-04-20 14:29:25 15.5 30 21.5
002F072B 2019-04-20 13:56:10 15.5 29 21.5
002F072B 2019-04-20 13:22:55 15.5 29 21.5
002F072B 2019-04-20 12:49:39 15.5 29 21.5
002F072B 2019-04-20 12:16:25 15.5 29 21.5
002F072B 2019-04-20 11:43:09 15.5 29 21.5
002F072B 2019-04-20 11:09:53 15.5 29 21.5
002F072B 2019-04-20 10:36:37 15.5 29 21.4
002F072B 2019-04-20 10:03:22 15.6 29 21.5
002F072B 2019-04-20 09:30:07 15.5 29 21.5
002F072B 2019-04-20 08:56:52 15.6 29 21.5
002F072B 2019-04-20 08:23:37 15.6 29 21.5
002F072B 2019-04-20 07:50:22 15.7 29 21.5
002F072B 2019-04-20 07:17:09 15.7 29 21.6
002F072B 2019-04-20 06:43:55 15.7 29 21.6
002F072B 2019-04-20 06:10:41 15.7 29 21.5
002F072B 2019-04-20 05:37:27 15.7 29 21.6
002F072B 2019-04-20 05:04:11 15.7 29 21.8
002F072B 2019-04-20 04:30:56 15.7 29 22
002F072B 2019-04-20 03:57:42 15.7 29 22.2
002F072B 2019-04-20 03:24:27 15.7 29 22.2
002F072B 2019-04-20 02:51:13 15.7 29 22.3
002F072B 2019-04-20 02:17:58 15.8 29 22.3
002F072B 2019-04-20 01:44:43 15.9 29 22.4
002F072B 2019-04-20 01:11:29 15.9 29 22.5
002F072B 2019-04-20 00:38:14 15.9 29 22.6
002F072B 2019-04-20 00:04:58 15.9 29 22.7
002F072B 2019-04-19 23:31:41 15.9 29 22.6
002F072B 2019-04-19 22:58:25 15.9 29 22.6
002F072B 2019-04-19 22:25:08 15.9 29 22.6
002F072B 2019-04-19 21:51:53 15.9 29 22.6
002F072B 2019-04-19 21:18:37 15.9 29 22.6
002F072B 2019-04-19 20:45:21 15.9 29 22.6
002F072B 2019-04-19 20:12:05 15.9 29 22.4
002F072B 2019-04-19 19:38:49 15.9 29 22.4
002F072B 2019-04-19 19:05:33 15.9 29 22.3
002F072B 2019-04-19 18:32:17 15.9 29 22.3
002F072B 2019-04-19 17:59:02 15.9 29 22.2
002F072B 2019-04-19 17:25:46 15.9 29 22.2
002F072B 2019-04-19 16:52:31 15.9 29 22.3
002F072B 2019-04-19 16:19:15 15.9 28 22.2
002F072B 2019-04-19 15:46:03 15.9 28 22
002F072B 2019-04-19 15:12:49 15.9 28 21.9
002F072B 2019-04-19 14:39:35 15.9 28 21.8
002F072B 2019-04-19 14:06:22 15.8 28 21.7
002F072B 2019-04-19 13:33:07 15.7 28 21.6
002F072B 2019-04-19 12:59:53 15.7 28 21.6
002F072B 2019-04-19 12:26:39 15.7 28 21.6
002F072B 2019-04-19 11:53:25 15.7 28 21.4
002F072B 2019-04-19 11:20:12 15.8 28 21.1
002F072B 2019-04-19 10:46:58 15.7 28 21.1
002F072B 2019-04-19 10:13:44 15.9 28 21
002F072B 2019-04-19 09:40:30 15.9 28 21.2
002F072B 2019-04-19 09:07:16 15.9 28 21.2
002F072B 2019-04-19 08:34:01 15.9 28 21.3
002F072B 2019-04-19 08:00:46 15.9 28 21.1
002F072B 2019-04-19 07:27:31 15.9 28 21.1
002F072B 2019-04-19 06:54:16 15.9 28 21.2
002F072B 2019-04-19 06:21:01 15.9 28 21.4
002F072B 2019-04-19 05:47:47 16 28 21.6
002F072B 2019-04-19 05:14:33 15.9 28 21.6
002F072B 2019-04-19 04:41:20 16 28 21.9
002F072B 2019-04-19 04:08:05 16.1 28 22
002F072B 2019-04-19 03:34:52 16.1 28 22.2
002F072B 2019-04-19 03:01:39 16.1 28 22.2
002F072B 2019-04-19 02:28:26 16.1 28 22.4
002F072B 2019-04-19 01:55:13 16.1 28 22.6
002F072B 2019-04-19 01:21:59 16.2 28 22.7
002F072B 2019-04-19 00:48:45 16.3 28 22.8
002F072B 2019-04-19 00:15:32 16.3 28 22.9
002F072B 2019-04-18 23:42:19 16.3 28 23.3
002F072B 2019-04-18 23:09:05 16.3 28 23.3
002F072B 2019-04-18 22:35:52 16.3 28 23.3
002F072B 2019-04-18 22:02:37 16.3 27 23.3
002F072B 2019-04-18 21:29:23 16.3 28 23.5
002F072B 2019-04-18 20:56:09 16.3 27 23.4
002F072B 2019-04-18 20:22:55 16.3 27 23.4
002F072B 2019-04-18 19:49:41 16.3 27 23.3
002F072B 2019-04-18 19:16:27 16.3 27 23.2
002F072B 2019-04-18 18:43:15 16.3 27 23.2
002F072B 2019-04-18 18:10:00 16.3 27 23.2
002F072B 2019-04-18 17:36:48 16.3 27 23.1
002F072B 2019-04-18 17:03:35 16.1 27 23
002F072B 2019-04-18 16:30:22 16.2 27 22.9
002F072B 2019-04-18 15:57:09 16.1 27 22.7
002F072B 2019-04-18 15:23:55 16.1 27 22.7
002F072B 2019-04-18 14:50:41 16.1 27 22.5
002F072B 2019-04-18 14:17:28 16.1 27 22.3
002F072B 2019-04-18 13:44:15 16.1 27 22
002F072B 2019-04-18 13:11:01 16.1 27 22
002F072B 2019-04-18 12:37:49 16.1 27 21.8
002F072B 2019-04-18 12:04:36 16.1 27 21.5
002F072B 2019-04-18 11:31:24 16.1 27 21.6
002F072B 2019-04-18 10:58:11 16.1 27 21.5
002F072B 2019-04-18 10:24:58 16.1 27 21.4
002F072B 2019-04-18 09:51:45 16.1 27 20.9
002F072B 2019-04-18 09:18:36 16.1 26 21
002F072B 2019-04-18 08:45:20 16.1 26 21.1
002F072B 2019-04-18 08:12:07 16.1 26 21.1
002F072B 2019-04-18 07:38:54 16.1 26 21
002F072B 2019-04-18 07:05:41 16.1 26 21.2
002F072B 2019-04-18 06:32:28 16.1 26 21.3
002F072B 2019-04-18 05:59:15 16.1 26 21.2
002F072B 2019-04-18 05:26:02 16.3 26 21.3
002F072B 2019-04-18 04:52:49 16.3 26 21.6
002F072B 2019-04-18 04:19:35 16.3 26 21.6
002F072B 2019-04-18 03:46:22 16.3 26 21.7
002F072B 2019-04-18 03:13:10 16.3 26 21.8
002F072B 2019-04-18 02:39:58 16.5 26 21.8
002F072B 2019-04-18 02:06:45 16.5 26 21.7
002F072B 2019-04-18 01:33:31 16.5 26 21.7
002F072B 2019-04-18 01:00:19 16.5 26 21.7
002F072B 2019-04-18 00:27:05 16.5 26 21.7
002F072B 2019-04-17 23:53:50 16.6 26 21.7
002F072B 2019-04-17 23:20:36 16.6 26 21.6
002F072B 2019-04-17 22:47:21 16.7 26 21.5
002F072B 2019-04-17 22:14:06 16.7 26 21.6
002F072B 2019-04-17 21:40:51 16.7 26 21.4
002F072B 2019-04-17 21:07:36 16.6 25 21.2
002F072B 2019-04-17 20:34:21 16.7 25 21
002F072B 2019-04-17 20:01:07 16.7 25 20.9
002F072B 2019-04-17 19:27:54 16.7 25 20.8
002F072B 2019-04-17 18:54:40 16.7 25 20.5
002F072B 2019-04-17 18:21:25 16.7 25 20.3
002F072B 2019-04-17 17:48:10 16.7 25 20
002F072B 2019-04-17 17:14:56 16.8 25 19.9
002F072B 2019-04-17 16:41:42 16.8 25 19.6
002F072B 2019-04-17 16:08:27 16.8 25 19.6
002F072B 2019-04-17 15:35:13 16.8 25 19.4
002F072B 2019-04-17 15:01:59 16.9 25 19
002F072B 2019-04-17 14:28:44 17 25 18.9
002F072B 2019-04-17 13:55:30 17 25 18.8
002F072B 2019-04-17 12:49:02 17.1 25 20.3
002F072B 2019-04-17 12:15:48 17.1 25 20.2
002F072B 2019-04-17 11:42:35 17.2 25 20.1
002F072B 2019-04-17 11:09:21 17.2 24 20
002F072B 2019-04-17 10:36:06 17.2 24 19.9
002F072B 2019-04-17 10:02:52 17.3 24 19.7
002F072B 2019-04-17 09:29:38 17.4 24 19.7
002F072B 2019-04-17 08:56:23 17.4 24 19.6
002F072B 2019-04-17 08:23:10 17.6 24 19.6
002F072B 2019-04-17 07:49:56 17.6 24 19.5
002F072B 2019-04-17 07:16:42 17.8 24 19.4
002F072B 2019-04-17 06:43:29 17.8 24 19.6
002F072B 2019-04-17 06:10:16 17.9 24 20.1
002F072B 2019-04-17 05:37:01 18 24 20.1
002F072B 2019-04-17 05:03:47 18 24 20.2
002F072B 2019-04-17 04:30:33 18 24 20.5
002F072B 2019-04-17 03:57:19 18.1 24 20.4
002F072B 2019-04-17 03:24:05 18.2 24 20.3
002F072B 2019-04-17 02:50:51 18.3 24 20.2
002F072B 2019-04-17 02:17:37 18.3 24 20.2
002F072B 2019-04-17 01:44:23 18.4 24 20.1
002F072B 2019-04-17 01:11:10 18.4 23 20
002F072B 2019-04-17 00:37:58 18.5 23 20
002F072B 2019-04-17 00:04:45 18.6 23 20.1
002F072B 2019-04-16 23:31:32 18.7 23 20
002F072B 2019-04-16 22:58:19 18.9 23 17.8
002F072B 2019-04-16 22:25:06 18.9 23 17.9
002F072B 2019-04-16 21:51:54 19.1 23 18.1
002F072B 2019-04-16 21:18:40 19.2 23 18.2
002F072B 2019-04-16 20:45:28 19.3 23 18.3
002F072B 2019-04-16 20:12:16 19.3 23 18.5
002F072B 2019-04-16 19:39:04 19.5 23 18.7
002F072B 2019-04-16 19:05:54 19.5 23 18.9
002F072B 2019-04-16 18:32:39 19.7 23 19.2
002F072B 2019-04-16 17:59:25 19.8 23 19.1
002F072B 2019-04-16 17:26:12 19.9 23 19.2
002F072B 2019-04-16 16:52:58 20.1 23 19.1
002F072B 2019-04-16 16:19:46 20.2 23 18.4
002F072B 2019-04-16 15:46:34 20.4 23 18.4
002F072B 2019-04-16 15:13:20 20.5 23 18.4
002F072B 2019-04-16 14:40:07 20.6 23 17.7
002F072B 2019-04-16 13:00:31 20.7 23 18
002F072B 2019-04-16 11:54:04 20.8 23 18
002F072B 2019-04-16 10:47:36 20.6 23 18.2
002F072B 2019-04-16 10:14:23 20.6 23 18.2
002F072B 2019-04-16 09:41:11 20.6 23 18.5
002F072B 2019-04-16 09:07:58 20.6 23 18.6
002F072B 2019-04-16 08:01:35 20.6 23 18.4
002F072B 2019-04-16 07:28:17 20.6 23 20.2
002F072B 2019-04-16 06:55:04 20.6 23 20.3
002F072B 2019-04-16 06:21:51 20.6 23 20.3
002F072B 2019-04-16 05:48:39 20.6 23 20.3
002F072B 2019-04-16 05:15:26 20.6 23 20.2
002F072B 2019-04-16 04:42:13 20.7 22 20.2
002F072B 2019-04-16 04:08:59 20.7 22 20.2
002F072B 2019-04-16 03:35:46 20.7 22 20
002F072B 2019-04-16 03:02:32 20.8 22 20
002F072B 2019-04-16 02:29:21 20.8 22 19.9
002F072B 2019-04-16 01:56:07 20.8 22 19.7
002F072B 2019-04-16 01:22:53 20.8 22 20.3
002F072B 2019-04-16 00:49:40 20.8 22 20.6
002F072B 2019-04-16 00:16:28 20.8 22 21
002F072B 2019-04-15 23:43:18 20.8 22 21.5
002F072B 2019-04-15 23:10:06 20.8 22 22
002F072B 2019-04-15 22:36:52 20.8 22 22.2
002F072B 2019-04-15 22:03:39 20.8 21 22.7
002F072B 2019-04-15 21:30:26 21 21 22.9
002F072B 2019-04-15 20:57:14 21 21 23.1
002F072B 2019-04-15 20:24:01 21 21 23.4
002F072B 2019-04-15 19:50:51 21 21 23.7
002F072B 2019-04-15 19:17:38 21.1 21 23.8
002F072B 2019-04-15 18:44:29 21.2 21 24
002F072B 2019-04-15 18:11:17 21.2 21 24.3
002F072B 2019-04-15 17:38:06 21.3 20 23.8
002F072B 2019-04-15 17:04:51 21.4 20 24.3
002F072B 2019-04-15 16:31:39 21.5 20 24.8
002F072B 2019-04-15 15:58:28 21.5 20 25.1
002F072B 2019-04-15 15:25:13 21.7 20 25.5
002F072B 2019-04-15 14:52:01 21.7 19 25.6
002F072B 2019-04-15 14:18:49 21.9 19 25.7
002F072B 2019-04-15 13:45:35 21.9 19 25.9
002F072B 2019-04-15 13:12:26 22 18 26
002F072B 2019-04-15 12:39:12 22.1 18 26.2
002F072B 2019-04-15 12:06:03 22.3 18 26.4
002F072B 2019-04-15 11:32:48 22.3 16 26.4
002F072B 2019-04-15 10:59:36 22.2 17 26.5
002F072B 2019-04-15 10:26:23 22.1 17 26.4
002F072B 2019-04-15 09:53:11 22.1 17 26.4
002F072B 2019-04-15 09:19:59 22.1 17 26.4
002F072B 2019-04-15 08:46:46 21.9 17 26.4
002F072B 2019-04-15 08:13:34 21.9 17 26.3
002F072B 2019-04-15 07:40:22 21.7 17 26.4
002F072B 2019-04-15 07:07:10 21.7 17 26.6
002F072B 2019-04-15 06:33:57 21.7 17 26.6
002F072B 2019-04-15 06:00:45 21.7 18 26.7
002F072B 2019-04-15 05:27:34 21.7 18 26.7
002F072B 2019-04-15 04:54:21 21.6 18 26.9
002F072B 2019-04-15 04:21:10 21.7 18 26.9
002F072B 2019-04-15 03:47:58 21.7 18 26.8
002F072B 2019-04-15 03:14:47 21.7 18 26.7
002F072B 2019-04-15 02:41:34 21.7 18 26.6
002F072B 2019-04-15 02:08:22 21.7 18 26.5
002F072B 2019-04-15 01:35:11 21.7 18 26.4
002F072B 2019-04-15 01:01:59 21.7 18 26.5
002F072B 2019-04-15 00:28:47 21.6 18 26.5
002F072B 2019-04-14 23:55:35 21.7 18 26.5
002F072B 2019-04-14 23:22:22 21.7 18 26.6
002F072B 2019-04-14 22:49:11 21.7 18 26.6
002F072B 2019-04-14 22:16:00 21.7 18 26.8
002F072B 2019-04-14 21:42:48 21.7 19 26.9
002F072B 2019-04-14 21:09:36 21.7 19 26.9
002F072B 2019-04-14 20:36:25 21.9 19 26.9
002F072B 2019-04-14 20:03:13 21.9 19 27
002F072B 2019-04-14 19:30:01 21.9 19 27
002F072B 2019-04-14 18:56:50 21.9 18 27
002F072B 2019-04-14 18:23:38 21.9 18 27
002F072B 2019-04-14 17:50:26 21.7 18 26.9
002F072B 2019-04-14 17:17:15 21.7 18 26.9
002F072B 2019-04-14 16:44:03 21.8 18 26.8
002F072B 2019-04-14 16:10:51 21.8 18 26.8
002F072B 2019-04-14 15:37:38 21.7 18 27
002F072B 2019-04-14 15:04:27 21.7 18 26.8
002F072B 2019-04-14 14:31:14 21.8 18 26.9
002F072B 2019-04-14 13:58:01 21.7 19 26.9
002F072B 2019-04-14 13:24:49 21.8 19 26.9
002F072B 2019-04-14 12:51:37 21.9 19 26.9
002F072B 2019-04-14 12:18:24 21.8 19 27.1
002F072B 2019-04-14 11:45:13 21.8 19 27.1
002F072B 2019-04-14 11:12:00 21.8 19 27.2
002F072B 2019-04-14 10:38:47 21.7 19 27.2
002F072B 2019-04-14 10:05:34 21.7 19 27.3
002F072B 2019-04-14 09:32:21 21.7 19 27.2
002F072B 2019-04-14 08:59:09 21.7 19 27.2
002F072B 2019-04-14 08:25:56 21.7 19 27.1
002F072B 2019-04-14 07:52:43 21.7 18 27
002F072B 2019-04-14 07:19:30 21.7 18 26.9
002F072B 2019-04-14 06:46:18 21.7 18 27.1
002F072B 2019-04-14 06:13:04 21.7 18 27.1
002F072B 2019-04-14 05:39:52 21.7 18 27.1
002F072B 2019-04-14 05:06:40 21.7 18 27.1
002F072B 2019-04-14 04:33:27 21.7 18 27.1
002F072B 2019-04-14 04:00:16 21.7 18 27.2
002F072B 2019-04-14 03:27:03 21.7 18 27.1
002F072B 2019-04-14 02:53:50 21.8 18 27
002F072B 2019-04-14 02:20:37 21.7 18 27
002F072B 2019-04-14 01:47:23 21.8 18 26.8
002F072B 2019-04-14 01:14:11 21.8 18 26.9
002F072B 2019-04-14 00:40:57 21.9 18 26.9
002F072B 2019-04-14 00:07:44 21.8 18 27
002F072B 2019-04-13 23:34:32 21.9 18 26.9
002F072B 2019-04-13 23:01:19 21.9 18 26.8
002F072B 2019-04-13 22:28:06 21.9 18 26.6
002F072B 2019-04-13 21:54:52 21.9 18 26.5
002F072B 2019-04-13 21:21:37 21.9 18 26.4
002F072B 2019-04-13 20:48:22 21.9 18 26.3
002F072B 2019-04-13 20:15:08 21.9 18 26.2
002F072B 2019-04-13 19:41:54 21.9 18 26.2
002F072B 2019-04-13 19:08:41 22.1 18 26.1
002F072B 2019-04-13 18:35:26 22.1 18 26.1
002F072B 2019-04-13 18:02:12 22.1 18 26
002F072B 2019-04-13 17:29:00 22.1 18 26
002F072B 2019-04-13 16:55:47 22.1 18 25.8
002F072B 2019-04-13 16:22:36 22.1 18 25.7
002F072B 2019-04-13 15:49:24 22.1 18 25.6
002F072B 2019-04-13 15:16:11 22.1 18 25.6
002F072B 2019-04-13 14:42:58 22.2 18 25.6
002F072B 2019-04-13 14:09:45 22.2 18 25.6
002F072B 2019-04-13 13:36:32 22.2 18 26
002F072B 2019-04-13 13:03:19 22.1 18 26
002F072B 2019-04-13 12:30:06 22.3 18 26
002F072B 2019-04-13 11:56:52 22.2 18 26
002F072B 2019-04-13 11:23:38 22.2 18 25.8
002F072B 2019-04-13 10:50:25 22.2 18 25.9
002F072B 2019-04-13 10:17:12 22.1 18 25.8
002F072B 2019-04-13 09:43:59 22.1 18 25.8
002F072B 2019-04-13 09:10:45 22.1 18 26
002F072B 2019-04-13 08:37:32 22.1 18 26.1
002F072B 2019-04-13 08:04:20 22.1 17 26.1
002F072B 2019-04-13 07:31:06 22.1 17 26.2
002F072B 2019-04-13 06:57:52 22.1 17 26.5
002F072B 2019-04-13 06:24:39 22.1 17 26.5
002F072B 2019-04-13 05:51:26 22.1 17 26.8
002F072B 2019-04-13 05:18:11 22.1 17 26.7
002F072B 2019-04-13 04:44:59 22.1 17 26.8
002F072B 2019-04-13 04:11:47 22.1 17 27.1
002F072B 2019-04-13 03:38:34 22.2 17 27.3
002F072B 2019-04-13 03:05:22 22.3 17 27.2
002F072B 2019-04-13 02:32:09 22.3 18 27.1
002F072B 2019-04-13 01:58:56 22.3 18 27.2
002F072B 2019-04-13 01:25:43 22.3 18 27.3
002F072B 2019-04-13 00:52:30 22.3 18 27.3
002F072B 2019-04-13 00:19:16 22.3 18 27.3
002F072B 2019-04-12 23:46:03 22.3 18 27.1
002F072B 2019-04-12 23:12:48 22.5 18 27.2
002F072B 2019-04-12 22:39:34 22.5 18 27.2
002F072B 2019-04-12 22:06:21 22.5 18 27.3
002F072B 2019-04-12 21:33:08 22.7 18 27.4
002F072B 2019-04-12 20:59:55 22.7 18 27.5
002F072B 2019-04-12 20:26:43 22.7 18 27.6
002F072B 2019-04-12 19:53:30 22.7 18 27.7
002F072B 2019-04-12 19:20:16 22.7 17 27.7
002F072B 2019-04-12 18:47:03 22.7 17 27.7
002F072B 2019-04-12 18:13:48 23 17 27.8
002F072B 2019-04-12 17:40:34 23 17 27.9
002F072B 2019-04-12 17:07:19 23.1 18 27.5
002F072B 2019-04-12 16:34:04 23.1 18 27.7
002F072B 2019-04-12 16:00:49 23 18 27.2
002F072B 2019-04-12 15:27:32 22.9 19 27.5
002F072B 2019-04-12 14:54:18 22.7 19 27.3
002F072B 2019-04-12 14:21:04 22.5 20 25.9
002F072B 2019-04-12 13:47:49 22.1 20 19
002F072B 2019-04-12 13:14:36 21.4 21 6.6